When you browse on this site, cookies collect data to enhance your experience and personalize the content and advertising you see.
Visit our Privacy Policy to learn more. By continuing to use the site, you agree to this use of cookies and data.
  • In Czech Republic
  • List of Countries
  • For 7 days
  • Water Temperature
  • Weather Map
  • Weather Widgets
  • user-avatar
    Login

    Hourly Weather Reykjavík

    Today, 25 August, Sunday

    Time Temperature Precipitation Wind Pressure Humidity
    00:00 +10°C° 0 mm 1 mps 757 mmHg 93%
    01:00 +10°C° 0 mm 1 mps 757 mmHg 92%
    02:00 +10°C° 0 mm 1 mps 756 mmHg 91%
    03:00 +9°C° 0 mm 2 mps 756 mmHg 91%
    04:00 +9°C° 0 mm 3 mps 755 mmHg 91%
    05:00 +9°C° 0 mm 3 mps 754 mmHg 91%
    06:00 +8°C° 0 mm 5 mps 754 mmHg 87%
    07:00 +9°C° 0 mm 7 mps 753 mmHg 84%
    08:00 +9°C° 0 mm 8 mps 752 mmHg 80%
    09:00 +8°C° 0.5 mm 10 mps 751 mmHg 82%
    10:00 +8°C° 0.5 mm 11 mps 750 mmHg 84%
    11:00 +8°C° 0.5 mm 13 mps 749 mmHg 86%
    12:00 +8°C° 1.1 mm 13 mps 747 mmHg 87%
    13:00 +8°C° 1.1 mm 14 mps 746 mmHg 88%
    14:00 +8°C° 1.1 mm 14 mps 745 mmHg 89%
    15:00 +8°C° 1.7 mm 14 mps 743 mmHg 89%
    16:00 +8°C° 1.7 mm 14 mps 742 mmHg 90%
    17:00 +8°C° 1.7 mm 14 mps 740 mmHg 90%
    18:00 +9°C° 0.9 mm 13 mps 739 mmHg 92%
    19:00 +9°C° 0.9 mm 11 mps 739 mmHg 93%
    20:00 +11°C° 0.9 mm 9 mps 738 mmHg 95%
    21:00 +10°C° 0.5 mm 8 mps 738 mmHg 93%
    22:00 +10°C° 0.5 mm 8 mps 737 mmHg 92%
    23:00 +10°C° 0.5 mm 8 mps 737 mmHg 91%

    Tomorrow, 26 August, Monday

    Time Temperature Precipitation Wind Pressure Humidity
    00:00 +10°C° 0.4 mm 8 mps 736 mmHg 89%
    01:00 +10°C° 0.4 mm 8 mps 736 mmHg 87%
    02:00 +10°C° 0.4 mm 9 mps 735 mmHg 85%
    03:00 +8°C° 1 mm 10 mps 734 mmHg 88%
    04:00 +8°C° 1 mm 12 mps 733 mmHg 91%
    05:00 +8°C° 1 mm 13 mps 733 mmHg 93%
    06:00 +8°C° 1.8 mm 12 mps 732 mmHg 94%
    07:00 +9°C° 1.8 mm 10 mps 732 mmHg 94%
    08:00 +10°C° 1.8 mm 9 mps 732 mmHg 94%
    09:00 +10°C° 0.4 mm 9 mps 732 mmHg 91%
    10:00 +11°C° 0.4 mm 9 mps 733 mmHg 88%
    11:00 +12°C° 0.4 mm 10 mps 733 mmHg 85%
    12:00 +11°C° 0.3 mm 9 mps 734 mmHg 86%
    13:00 +11°C° 0.3 mm 9 mps 734 mmHg 87%
    14:00 +11°C° 0.3 mm 8 mps 735 mmHg 88%
    15:00 +11°C° 0.4 mm 8 mps 735 mmHg 87%
    16:00 +11°C° 0.4 mm 7 mps 735 mmHg 85%
    17:00 +11°C° 0.4 mm 7 mps 735 mmHg 83%
    18:00 +11°C° 0.2 mm 6 mps 736 mmHg 87%
    19:00 +10°C° 0.2 mm 5 mps 737 mmHg 90%
    20:00 +10°C° 0.2 mm 4 mps 737 mmHg 94%
    21:00 +10°C° 0.7 mm 3 mps 737 mmHg 94%
    22:00 +10°C° 0.7 mm 3 mps 738 mmHg 94%
    23:00 +10°C° 0.7 mm 2 mps 738 mmHg 95%

    Day after tomorrow, 27 August, Tuesday

    Time Temperature Precipitation Wind Pressure Humidity
    00:00 +9°C° 0.1 mm 3 mps 738 mmHg 95%
    01:00 +9°C° 0.1 mm 3 mps 738 mmHg 95%
    02:00 +8°C° 0.1 mm 4 mps 739 mmHg 95%
    03:00 +8°C° 0.5 mm 4 mps 739 mmHg 95%
    04:00 +8°C° 0.5 mm 4 mps 739 mmHg 94%
    05:00 +8°C° 0.5 mm 5 mps 740 mmHg 94%
    06:00 +8°C° 0.3 mm 5 mps 740 mmHg 92%
    07:00 +8°C° 0.3 mm 5 mps 741 mmHg 90%
    08:00 +8°C° 0.3 mm 6 mps 741 mmHg 88%
    09:00 +9°C° 0.1 mm 5 mps 742 mmHg 84%
    10:00 +9°C° 0.1 mm 5 mps 742 mmHg 81%
    11:00 +10°C° 0.1 mm 4 mps 743 mmHg 77%
    12:00 +9°C° 0.1 mm 5 mps 744 mmHg 78%
    13:00 +9°C° 0.1 mm 7 mps 744 mmHg 79%
    14:00 +9°C° 0.1 mm 8 mps 745 mmHg 80%
    15:00 +9°C° 0.1 mm 8 mps 746 mmHg 84%
    16:00 +9°C° 0.1 mm 8 mps 746 mmHg 88%
    17:00 +7°C° 0.1 mm 8 mps 747 mmHg 92%
    18:00 +7°C° 0.1 mm 8 mps 748 mmHg 90%
    19:00 +7°C° 0.1 mm 8 mps 748 mmHg 89%
    20:00 +6°C° 0.1 mm 8 mps 749 mmHg 87%
    21:00 +6°C° 0.1 mm 8 mps 750 mmHg 87%
    22:00 +6°C° 0.1 mm 8 mps 750 mmHg 87%
    23:00 +6°C° 0.1 mm 7 mps 751 mmHg 87%

    28 August, Wednesday

    Time Temperature Precipitation Wind Pressure Humidity
    00:00 +6°C° 0.1 mm 7 mps 751 mmHg 87%
    01:00 +7°C° 0.1 mm 6 mps 751 mmHg 87%
    02:00 +7°C° 0.1 mm 6 mps 751 mmHg 87%
    03:00 +7°C° 0.1 mm 5 mps 752 mmHg 88%
    04:00 +6°C° 0.1 mm 5 mps 752 mmHg 88%
    05:00 +6°C° 0.1 mm 4 mps 752 mmHg 89%
    06:00 +7°C° 0 mm 4 mps 752 mmHg 86%
    07:00 +8°C° 0 mm 3 mps 752 mmHg 83%
    08:00 +9°C° 0 mm 2 mps 752 mmHg 80%
    09:00 +9°C° 0 mm 2 mps 752 mmHg 77%
    10:00 +10°C° 0 mm 2 mps 753 mmHg 73%
    11:00 +10°C° 0 mm 2 mps 753 mmHg 70%
    12:00 +10°C° 0 mm 2 mps 752 mmHg 68%
    13:00 +12°C° 0 mm 2 mps 752 mmHg 66%
    14:00 +12°C° 0 mm 2 mps 752 mmHg 65%
    15:00 +12°C° 0 mm 2 mps 752 mmHg 65%
    16:00 +12°C° 0 mm 2 mps 752 mmHg 65%
    17:00 +12°C° 0 mm 2 mps 752 mmHg 65%
    18:00 +10°C° 0 mm 2 mps 752 mmHg 72%
    19:00 +9°C° 0 mm 2 mps 752 mmHg 78%
    20:00 +8°C° 0 mm 2 mps 752 mmHg 85%
    21:00 +9°C° 0 mm 1 mps 752 mmHg 85%
    22:00 +9°C° 0 mm 1 mps 752 mmHg 84%
    23:00 +9°C° 0 mm 1 mps 752 mmHg 83%

    29 August, Thursday

    Time Temperature Precipitation Wind Pressure Humidity
    00:00 +8°C° 0 mm 2 mps 752 mmHg 83%
    01:00 +8°C° 0 mm 2 mps 752 mmHg 83%
    02:00 +7°C° 0 mm 3 mps 751 mmHg 83%
    03:00 +8°C° 0 mm 3 mps 751 mmHg 80%
    04:00 +8°C° 0 mm 3 mps 751 mmHg 78%
    05:00 +8°C° 0 mm 3 mps 751 mmHg 75%
    06:00 +9°C° 0 mm 3 mps 752 mmHg 73%
    07:00 +10°C° 0 mm 3 mps 752 mmHg 72%
    08:00 +10°C° 0 mm 2 mps 752 mmHg 71%
    09:00 +12°C° 0 mm 2 mps 752 mmHg 71%
    10:00 +12°C° 0 mm 2 mps 752 mmHg 71%
    11:00 +13°C° 0 mm 2 mps 752 mmHg 71%
    12:00 +13°C° 0.3 mm 2 mps 753 mmHg 71%
    13:00 +13°C° 0.3 mm 2 mps 753 mmHg 72%
    14:00 +13°C° 0.3 mm 2 mps 753 mmHg 73%
    15:00 +13°C° 0.2 mm 2 mps 753 mmHg 74%
    16:00 +11°C° 0.2 mm 3 mps 753 mmHg 76%
    17:00 +11°C° 0.2 mm 3 mps 753 mmHg 77%
    18:00 +11°C° 0.1 mm 3 mps 754 mmHg 81%
    19:00 +10°C° 0.1 mm 3 mps 754 mmHg 85%
    20:00 +9°C° 0.1 mm 3 mps 755 mmHg 89%
    21:00 +9°C° 0 mm 3 mps 755 mmHg 90%
    22:00 +8°C° 0 mm 3 mps 755 mmHg 90%
    23:00 +7°C° 0 mm 4 mps 756 mmHg 90%

    30 August, Friday

    Time Temperature Precipitation Wind Pressure Humidity
    00:00 +7°C° 0 mm 4 mps 756 mmHg 90%
    01:00 +6°C° 0 mm 4 mps 756 mmHg 89%
    02:00 +6°C° 0 mm 5 mps 756 mmHg 89%
    03:00 +5°C° 0 mm 5 mps 756 mmHg 89%
    04:00 +5°C° 0 mm 5 mps 756 mmHg 89%
    05:00 +5°C° 0 mm 5 mps 756 mmHg 88%
    06:00 +5°C° 0 mm 5 mps 756 mmHg 85%
    07:00 +6°C° 0 mm 5 mps 757 mmHg 82%
    08:00 +6°C° 0 mm 5 mps 757 mmHg 79%
    09:00 +7°C° 0 mm 5 mps 757 mmHg 75%
    10:00 +8°C° 0 mm 5 mps 757 mmHg 71%
    11:00 +9°C° 0 mm 5 mps 757 mmHg 67%
    12:00 +9°C° 0 mm 5 mps 757 mmHg 63%
    13:00 +9°C° 0 mm 5 mps 757 mmHg 59%
    14:00 +10°C° 0 mm 6 mps 757 mmHg 56%
    15:00 +9°C° 0 mm 6 mps 758 mmHg 57%
    16:00 +9°C° 0 mm 6 mps 758 mmHg 58%
    17:00 +9°C° 0 mm 6 mps 758 mmHg 59%
    18:00 +7°C° 0 mm 5 mps 758 mmHg 64%
    19:00 +6°C° 0 mm 5 mps 759 mmHg 69%
    20:00 +5°C° 0 mm 5 mps 759 mmHg 74%
    21:00 +5°C° 0 mm 5 mps 759 mmHg 76%
    22:00 +3°C° 0 mm 5 mps 760 mmHg 79%
    23:00 +3°C° 0 mm 5 mps 760 mmHg 81%
    Show more